Home > Weather > Nablus > Past weeks

Flag for Palestinian Territories Weather for the Past 2 Weeks in Nablus, West Bank, Palestinian Territories

Now
55 °F

Passing clouds.


Feels Like: 54 °F
Forecast: 43 / 47 °F
Wind: 7 mph from South

Location: Ben Gurion International Airport

Current Time: Feb 6, 2016 at 3:28:47 AM

Latest Report: Feb 6, 2016 at 2:20 AM


Visibility: 4 mi

Pressure: 30.01 "Hg (28.16 "Hg at 534m altitude)

Humidity: 94%

Dew point: 54 °F

Location of NablusLocation

Historic Weather in Nablus — Graph

°F

Nablus Temperature Yesterday

Maximum temperature yesterday: 75 °F (at 1:20 PM)
Minimum temperature yesterday: 48 °F (at 4:50 AM)
Average temperature yesterday: 61 °F

High & Low Weather Summary for the Past Weeks

 TemperatureHumidityPressure
High75 °F (Feb 4, 2:20 PM)94% (Jan 23, 6:20 AM)30.45 "Hg (Jan 23, 6:20 AM)
Low34 °F (Jan 28, 5:50 AM)21% (Feb 4, 2:20 PM)29.92 "Hg (Feb 5, 1:20 PM)
Average52 °F70%30.20 "Hg
* Reported Jan 22 1:20 AM — Feb 6 1:50 AM, Nablus, Weather by CustomWeather, © 2016

Note: Actual official high and low records may vary slightly from our data, if they occured in-between our weather recording intervals... More about our weather records

Advertising

Nablus Weather History for the Previous 24 Hours

 ConditionsComfort  
Time TempWeatherWind HumidityBarometerVisibility
1:50 AM
Sat, Feb 6
55 °FPassing clouds.5 mph94%30.01 "Hg4 mi
1:20 AM55 °FPassing clouds.6 mph94%30.01 "Hg4 mi
12:50 AM57 °FPassing clouds.6 mph88%30.01 "Hg4 mi
12:20 AM57 °FPassing clouds.6 mph94%30.04 "Hg4 mi
11:50 PM
Fri, Feb 5
57 °FPassing clouds.6 mph94%30.04 "Hg4 mi
11:20 PM57 °FPassing clouds.7 mph94%30.04 "Hg4 mi
10:50 PM59 °FPassing clouds.5 mph88%30.04 "Hg4 mi
10:20 PM59 °FPassing clouds.6 mph88%30.04 "Hg4 mi
9:50 PM59 °FPassing clouds.6 mph88%30.04 "Hg4 mi
9:20 PM59 °FPassing clouds.6 mph88%30.04 "Hg4 mi
8:50 PM59 °FPassing clouds.5 mph88%30.04 "Hg5 mi
8:20 PM59 °FPassing clouds.6 mph88%30.04 "Hg6 mi
7:50 PM61 °FPassing clouds.5 mph88%30.04 "Hg6 mi
7:20 PM61 °FPassing clouds.3 mph88%30.01 "Hg6 mi
6:50 PM61 °FPassing clouds.5 mph83%30.01 "HgN/A
6:20 PM63 °FPassing clouds.3 mph83%30.01 "HgN/A
5:50 PM63 °FPassing clouds.3 mph77%29.98 "HgN/A
5:20 PM63 °FPassing clouds.3 mph83%29.98 "HgN/A
4:50 PM64 °FSunny.6 mph73%29.98 "Hg10 mi
4:20 PM66 °FSunny.5 mph60%29.98 "Hg10 mi
3:50 PM66 °FSunny.8 mph56%29.95 "Hg10 mi
3:20 PM68 °FSunny.9 mph49%29.95 "Hg10 mi
2:50 PM70 °FSunny.13 mph43%29.95 "Hg10 mi
2:20 PM72 °FPassing clouds.13 mph33%29.95 "HgN/A
1:50 PM75 °FPassing clouds.12 mph25%29.92 "HgN/A
1:20 PM75 °FSunny.13 mph25%29.92 "Hg10 mi
12:50 PM73 °FSunny.9 mph36%29.95 "Hg10 mi
12:20 PM72 °FSunny.14 mph41%29.95 "Hg10 mi
11:50 AM72 °FSunny.13 mph41%29.95 "Hg10 mi
11:20 AM73 °FSunny.13 mph36%29.95 "Hg10 mi
10:50 AM73 °FSunny.5 mph33%29.95 "Hg10 mi
10:20 AM73 °FSunny.2 mph27%29.98 "Hg10 mi
9:50 AM70 °FSunny.1 mph33%29.98 "Hg10 mi
9:20 AM64 °FSunny.5 mph49%29.98 "Hg10 mi
8:50 AM61 °FSunny.2 mph55%29.98 "Hg10 mi
8:20 AM57 °FSunny.2 mph63%29.98 "Hg10 mi
7:20 AM50 °FSunny.7 mph62%29.98 "Hg10 mi
6:50 AM50 °FSunny.3 mph62%29.98 "Hg10 mi
6:20 AM48 °FClear.1 mph66%29.98 "Hg10 mi
5:20 AM50 °FClear.5 mph67%29.98 "Hg10 mi
4:50 AM48 °FClear.1 mph71%29.98 "Hg10 mi
4:20 AM52 °FClear.2 mph58%29.98 "Hg10 mi
3:50 AM50 °FClear.3 mph67%29.98 "Hg10 mi
3:20 AM50 °FClear.5 mph67%30.01 "Hg10 mi
Weather by CustomWeather, © 2016

See weather overviewHow to use our weather pages